This is the latest recevied weather packets stored in our database for station/object JS2WAD-13. If no packets are shown the sender has not sent any weather packets the latest 10 day(s).
| Time | Temp. | Humidity | Pressure | Rain* | Wind** | Luminosity | Snow |
|---|---|---|---|---|---|---|---|
| 1777947684 | 18.89° C | 32% | 911 hPa | 0 mm | - | 65 W/m² | - |
| 1777947384 | 18.33° C | 37% | 911.2 hPa | 0 mm | - | 993 W/m² | - |
| 1777947084 | 18.33° C | 41% | 911.3 hPa | 0 mm | - | 1020 W/m² | - |
| 1777946784 | 18.33° C | 39% | 911.3 hPa | 0 mm | - | 960 W/m² | - |
| 1777946484 | 18.33° C | 36% | 911.4 hPa | 0 mm | - | 942 W/m² | - |
| 1777946184 | 17.78° C | 36% | 911.4 hPa | 0 mm | - | 104 W/m² | - |
| 1777945884 | 17.78° C | 43% | 911.4 hPa | 0 mm | - | 72 W/m² | - |
| 1777945584 | 17.22° C | 51% | 911.4 hPa | 0 mm | - | 900 W/m² | - |
| 1777945284 | 17.22° C | 46% | 911.4 hPa | 0 mm | - | 923 W/m² | - |
| 1777944984 | 17.22° C | 42% | 911.5 hPa | 0 mm | - | 218 W/m² | - |
| 1777944684 | 16.67° C | 46% | 911.5 hPa | 0 mm | - | 86 W/m² | - |
| 1777944384 | 16.67° C | 47% | 911.5 hPa | 0 mm | - | 721 W/m² | - |
| 1777944084 | 16.67° C | 47% | 911.5 hPa | 0 mm | - | 97 W/m² | - |
| 1777943784 | 16.11° C | 48% | 911.5 hPa | 0 mm | - | 53 W/m² | - |
| 1777943484 | 16.11° C | 48% | 911.5 hPa | 0 mm | - | 54 W/m² | - |
| 1777943184 | 16.11° C | 49% | 911.5 hPa | 0 mm | - | 49 W/m² | - |
| 1777942884 | 16.11° C | 50% | 911.5 hPa | 0 mm | - | 46 W/m² | - |
| 1777942584 | 16.11° C | 48% | 911.5 hPa | 0 mm | - | 46 W/m² | - |
| 1777942284 | 15.56° C | 52% | 911.6 hPa | 0 mm | - | 42 W/m² | - |
| 1777941984 | 15.56° C | 51% | 911.5 hPa | 0 mm | - | 42 W/m² | - |
| 1777941685 | 15.56° C | 49% | 911.4 hPa | 0 mm | - | 49 W/m² | - |
| 1777941384 | 15.56° C | 46% | 911.4 hPa | 0 mm | - | 42 W/m² | - |
| 1777941084 | 15.56° C | 50% | 911.4 hPa | 0 mm | - | 40 W/m² | - |
| 1777940784 | 15.56° C | 54% | 911.3 hPa | 0 mm | - | 39 W/m² | - |
| 1777940484 | 15° C | 61% | 911.3 hPa | 0 mm | - | 37 W/m² | - |
* Rain latest hour (hover to see other rain measurements)
** Current wind speed in m/s (hover to see current wind gust speed)